Weather History for KOTM - June, 2012

Change the Weather History Date:

Tuesday, June 19, 2012

  Actual Average Record
Temperature  
Mean Temperature 80 °F 72 °F  
Max Temperature 89 °F 83 °F 104 °F (1936)
Min Temperature 71 °F 62 °F 46 °F (1916)
Degree Days  
Heating Degree Days 0 0  
Month to date heating degree days 13 19  
Since 1 June heating degree days 13 19  
Since 1 July heating degree days 5038 6315  
Cooling Degree Days 15 8  
Month to date cooling degree days 125 104  
Year to date cooling degree days 279 168  
Since 1 June cooling degree days 125 104  
Growing Degree Days 30 (Base 50)    
Moisture  
Dew Point 67 °F    
Average Humidity 62    
Maximum Humidity 73    
Minimum Humidity 50    
Precipitation  
Precipitation 0.00 in 0.16 in 1.75 in (1906)
Month to date precipitation 2.86 3.23  
Year to date precipitation 14.21 15.76  
Sea Level Pressure  
Sea Level Pressure 29.79 in    
Wind  
Wind Speed 13 mph (South)    
Max Wind Speed 24 mph    
Max Gust Speed 33 mph    
Visibility 10 miles    
Events Rain    
T = Trace of Precipitation, MM = Missing Value Source: NWS Daily Summary

Daily Weather History Graph

Daily Weather History Graph

Search for Another Location

Airport or City:

Trip Planner

Search our weather history database for the weather conditions in past years. The results will help you decide how hot, cold, wet, or windy it might be!

Date:

Astronomy

Jun. 19, 2012 Rise Set
Actual Time 5:37 AM CDT 8:45 PM CDT
Civil Twilight 5:03 AM CDT 9:19 PM CDT
Nautical Twilight 4:20 AM CDT 10:02 PM CDT
Astronomical Twilight 3:28 AM CDT 10:53 PM CDT
Moon 5:42 AM CDT (6/19) 8:49 PM CDT (6/19)
Length of Visible Light 16h 15m
Length of Day
15h 08m
New Moon, 0% of the Moon is Illuminated
Jun 19
New Moon
Jun 26
First Quarter
Jul 3
Full
Jul 10
Last Quarter
Jul 18
New

Hourly Weather History & Observations

Time (CDT) Temp. Heat Index Dew Point Humidity Pressure Visibility Wind Dir Wind Speed Gust Speed Precip Events Conditions
12:53 AM 75.9 °F - 63.0 °F 64% 29.73 in 10.0 mi South 5.8 mph - N/A   Clear
1:53 AM 73.9 °F - 63.0 °F 68% 29.73 in 10.0 mi South 6.9 mph - N/A   Clear
2:53 AM 73.0 °F - 62.1 °F 68% 29.73 in 10.0 mi South 6.9 mph - N/A   Clear
3:53 AM 72.0 °F - 63.0 °F 73% 29.73 in 10.0 mi South 10.4 mph - N/A   Clear
4:53 AM 71.1 °F - 63.0 °F 75% 29.75 in 10.0 mi South 9.2 mph - N/A   Clear
5:53 AM 71.1 °F - 63.0 °F 75% 29.77 in 10.0 mi South 10.4 mph - 0.00 in Rain Light Rain
6:53 AM 73.9 °F - 64.0 °F 71% 29.79 in 10.0 mi South 13.8 mph 19.6 mph 0.00 in   Clear
7:53 AM 75.9 °F - 64.9 °F 69% 29.81 in 10.0 mi South 15.0 mph 20.7 mph N/A   Clear
8:53 AM 79.0 °F - 66.9 °F 66% 29.81 in 10.0 mi South 16.1 mph 21.9 mph N/A   Clear
9:53 AM 81.0 °F 84.1 °F 69.1 °F 67% 29.82 in 10.0 mi South 15.0 mph 20.7 mph N/A   Clear
10:53 AM 82.9 °F 87.0 °F 70.0 °F 65% 29.82 in 10.0 mi South 13.8 mph 23.0 mph N/A   Clear
11:53 AM 84.9 °F 89.4 °F 70.0 °F 61% 29.82 in 10.0 mi South 16.1 mph 23.0 mph N/A   Clear
12:53 PM 86.0 °F 90.7 °F 70.0 °F 59% 29.82 in 10.0 mi South 16.1 mph 28.8 mph 0.00 in   Partly Cloudy
1:53 PM 87.1 °F 92.0 °F 70.0 °F 57% 29.81 in 10.0 mi South 18.4 mph 28.8 mph N/A   Partly Cloudy
2:53 PM 88.0 °F 92.9 °F 70.0 °F 55% 29.79 in 10.0 mi South 17.3 mph 28.8 mph N/A   Partly Cloudy
3:53 PM 88.0 °F 91.4 °F 68.0 °F 51% 29.79 in 10.0 mi South 18.4 mph 31.1 mph N/A   Partly Cloudy
4:53 PM 88.0 °F 91.4 °F 68.0 °F 51% 29.79 in 10.0 mi South 20.7 mph 29.9 mph N/A   Partly Cloudy
5:53 PM 87.8 °F 90.4 °F 66.2 °F 49% 29.81 in 10.0 mi South 18.4 mph 26.5 mph N/A   Partly Cloudy
6:53 PM 86.0 °F 88.8 °F 66.9 °F 53% 29.79 in 10.0 mi South 13.8 mph 25.3 mph N/A   Clear
7:53 PM 84.9 °F 87.6 °F 66.9 °F 55% 29.80 in 10.0 mi South 12.7 mph 19.6 mph N/A   Clear
8:53 PM 81.0 °F 83.3 °F 66.9 °F 62% 29.80 in 10.0 mi South 9.2 mph - N/A   Clear
9:53 PM 81.0 °F 83.8 °F 68.0 °F 65% 29.82 in 10.0 mi South 11.5 mph - N/A   Clear
10:53 PM 79.0 °F - 68.0 °F 69% 29.84 in 10.0 mi South 9.2 mph - N/A   Clear
11:53 PM 78.8 °F - 68.0 °F 69% 29.86 in 10.0 mi South 10.4 mph - N/A   Clear